UAL1508 KRSW-KEWR

Flight info

Callsign UAL1508
Flight time N/A
Altitude 33000
Route CSHEL8 VIYAP/N0450F350 Q87 ALWZZ OGRAE Q99 QUART PHLBO4
Aircraft B739/M-SDE2E3FGHIRWXY/LB1

Departure

Time 2026-05-07 19:37
Airport Southwest Florida International Airport (KRSW)

Arrival

Time N/A
Airport Newark Liberty International Airport (KEWR)
Time Latitude Longitude Altitude Speed Heading
2026-05-07 18:57 26.52910 -81.75457 43 ft 0 kts 277°
2026-05-07 19:21 26.52909 -81.75448 42 ft 4 kts 284°
2026-05-07 19:21 26.52904 -81.75419 43 ft 4 kts 275°
2026-05-07 19:21 26.52906 -81.75392 43 ft 4 kts 232°
2026-05-07 19:21 26.52926 -81.75377 43 ft 4 kts 195°
2026-05-07 19:22 26.52940 -81.75373 43 ft 0 kts 188°
2026-05-07 19:29 26.52932 -81.75350 41 ft 8 kts 65°
2026-05-07 19:30 26.52980 -81.75355 43 ft 7 kts 339°
2026-05-07 19:30 26.53013 -81.75362 42 ft 7 kts 352°
2026-05-07 19:30 26.53061 -81.75374 41 ft 7 kts 328°
2026-05-07 19:30 26.53099 -81.75485 43 ft 22 kts 277°
2026-05-07 19:31 26.53156 -81.75590 43 ft 12 kts 340°
2026-05-07 19:31 26.53228 -81.75576 43 ft 5 kts 49°
2026-05-07 19:31 26.53234 -81.75511 43 ft 15 kts 94°
2026-05-07 19:31 26.53242 -81.75355 42 ft 15 kts 44°
2026-05-07 19:32 26.53305 -81.75367 43 ft 15 kts 326°
2026-05-07 19:32 26.53387 -81.75431 42 ft 14 kts 323°
2026-05-07 19:32 26.53469 -81.75481 43 ft 14 kts
2026-05-07 19:32 26.53530 -81.75408 43 ft 13 kts 47°
2026-05-07 19:33 26.53617 -81.75296 43 ft 28 kts 52°
2026-05-07 19:33 26.53747 -81.75110 42 ft 30 kts 52°
2026-05-07 19:33 26.53873 -81.74930 44 ft 29 kts 52°
2026-05-07 19:33 26.53980 -81.74751 43 ft 27 kts 57°
2026-05-07 19:34 26.54086 -81.74586 41 ft 25 kts 52°
2026-05-07 19:34 26.54188 -81.74438 44 ft 24 kts 52°
2026-05-07 19:34 26.54285 -81.74295 43 ft 22 kts 54°
2026-05-07 19:34 26.54374 -81.74155 43 ft 22 kts 54°
2026-05-07 19:35 26.54464 -81.74022 44 ft 21 kts 34°
2026-05-07 19:35 26.54542 -81.74085 41 ft 14 kts 254°
2026-05-07 19:35 26.54523 -81.74130 43 ft 0 kts 238°
2026-05-07 19:35 26.54409 -81.74297 42 ft 65 kts 232°
2026-05-07 19:36 26.54025 -81.74876 45 ft 119 kts 234°
2026-05-07 19:36 26.53457 -81.75759 44 ft 159 kts 237°
2026-05-07 19:36 26.52770 -81.76835 193 ft 179 kts 233°
2026-05-07 19:36 26.51937 -81.77940 494 ft 194 kts 232°
2026-05-07 19:37 26.51159 -81.79179 1026 ft 191 kts 242°
2026-05-07 19:37 26.50617 -81.80438 1943 ft 168 kts 248°
2026-05-07 19:37 26.50200 -81.81632 2517 ft 169 kts 250°
2026-05-07 19:37 26.49834 -81.82983 2649 ft 194 kts 253°
2026-05-07 19:38 26.49373 -81.84445 3035 ft 200 kts 244°
2026-05-07 19:38 26.48702 -81.85734 3793 ft 183 kts 231°
2026-05-07 19:38 26.47800 -81.86684 4336 ft 180 kts 213°
2026-05-07 19:38 26.46602 -81.87277 4478 ft 199 kts 193°
2026-05-07 19:39 26.45206 -81.87514 4791 ft 202 kts 187°
2026-05-07 19:39 26.43868 -81.87483 5399 ft 194 kts 168°